Flag for U.S.A. Weather past 2 weeks in Minot, North Dakota, U.S.A.

Now
68 °F

Overcast.


Feels Like: 68 °F
Forecast: 62 / 79 °F
Wind: 14 mph from East

Location: Minot International Airport

Current Time: Jul 23, 2014 at 11:50:01 AM

Latest Report: Jul 23, 2014 at 10:54 AM


Visibility: 10 mi

Pressure: 30.26 "Hg

Humidity: 84%

Dew point: 63 °F

Location of MinotLocation

Historic Weather in Minot — Graph

°F

Minot temperature yesterday

Maximum temperature yesterday: 77 °F (at 6:54 PM)
Minimum temperature yesterday: 59 °F (at 5:54 AM)
Average temperature yesterday: 66 °F

Past Weeks' High & Low Weather Summary

 TemperatureHumidityPressure
High90 °F (Jul 20, 1:54 PM)100% (Jul 16, 9:54 AM)30.32 "Hg (Jul 16, 9:54 AM)
Low49 °F (Jul 15, 5:54 AM)28% (Jul 20, 1:54 PM)29.55 "Hg (Jul 20, 3:54 AM)
Average68 °F65%29.94 "Hg
* Reported Jul 8 10:54 AM — Jul 23 10:54 AM, Minot, Weather by CustomWeather, © 2014

Note: Actual official high and low records may vary slightly from our data, if they occured in-between our weather recording intervals... More about our weather records

Advertising

Minot weather history for July 13, 2014

 ConditionsComfort  
Time TempWeatherWind HumidityBarometerVisibility
12:54 AM
Jul 13
61 °FClear.14 mph58%30.04 "Hg9 mi
1:54 AM59 °FClear.12 mph60%30.04 "Hg9 mi
2:54 AM57 °FClear.14 mph64%30.04 "Hg9 mi
3:54 AM56 °FClear.14 mph65%30.04 "Hg9 mi
4:54 AM55 °FClear.14 mph69%30.04 "Hg9 mi
5:54 AM54 °FClear.13 mph69%30.06 "Hg8 mi
6:54 AM55 °FClear.13 mph67%30.06 "Hg9 mi
7:54 AM58 °FSunny.15 mph60%30.07 "Hg10 mi
8:54 AM61 °FSunny.14 mph56%30.08 "Hg10 mi
9:54 AM64 °FSunny.14 mph52%30.08 "Hg10 mi
10:54 AM67 °FSunny.16 mph45%30.07 "Hg10 mi
11:54 AM68 °FSunny.22 mph39%30.06 "Hg10 mi
12:54 PM70 °FSunny.17 mph39%30.05 "Hg10 mi
1:54 PM70 °FSunny.26 mph35%30.03 "Hg10 mi
2:54 PM71 °FSunny.23 mph34%30.03 "Hg10 mi
3:54 PM72 °FSunny.22 mph34%30.03 "Hg10 mi
4:54 PM72 °FScattered clouds.22 mph33%30.03 "Hg10 mi
5:54 PM70 °FPassing clouds.25 mph38%30.03 "Hg10 mi
6:54 PM67 °FPartly sunny.21 mph45%30.04 "Hg10 mi
7:54 PM68 °FScattered clouds.21 mph44%30.05 "Hg10 mi
8:54 PM63 °FPartly sunny.14 mph54%30.07 "Hg10 mi
9:54 PM61 °FOvercast.12 mph58%30.09 "Hg10 mi
10:54 PM60 °FOvercast.12 mph60%30.10 "Hg10 mi
11:54 PM58 °FOvercast.8 mph67%30.11 "Hg10 mi
Weather by CustomWeather, © 2014

See weather overviewHow to use our weather pages